Regional Weather Roundup
Issued by NWS

Home | Current Version | Previous Version | Text Only | Print | Product List | Glossary Off
Versions: 1 2 3 4 5 6 7 8 9 10 11 12 13 14 15 16 17 18 19 20 21 22 23 24 25 26 27 28 29 30 31 32 33 34 35 36 37 38 39 40 41 42 43 44 45 46 47 48 49 50

000
ASUS45 KTFX 310504
RWRMT
MONTANA HOURLY WEATHER ROUNDUP
NATIONAL WEATHER SERVICE GREAT FALLS MT
1104 PM MDT SAT AUG 30 2014

NOTE: "FAIR" INDICATES FEW OR NO CLOUDS BELOW 12000 FEET WITH NO
SIGNIFICANT WEATHER AND/OR OBSTRUCTIONS TO VISIBILITY.

* THESE STATIONS ARE NOT UNDER NWS QUALITY CONTROL. THEY DO NOT
   REPORT WEATHER SUCH AS PRECIPITATION OR FOG.

MTZ001>007-043-310600-
WEST OF THE DIVIDE
CITY           SKY/WX    TMP DP  RH WIND       PRES   REMARKS
KALISPELL      CLOUDY    55  41  59 SW6       29.81S
MISSOULA       CLOUDY    63  41  45 N6        29.86S
BUTTE          CLOUDY    50  48  93 SE3       29.93S
MULLAN PASS    CLOUDY    48  39  71 SW8       29.95S
* LINCOLN      N/A       53  39  59 SE2        N/A
* LOOKOUT PASS N/A       56  42  60 SE3G8      N/A
* POLSON       N/A       55  39  55 S1         N/A
* RONAN APT    MOCLDY    55  43  64 N/A        N/A
* SEELEY LAKE  N/A       45  40  83 N2         N/A
* THOMP F APT  MOCLDY    47  44  89 NE8G13     N/A
$$

MTZ008-052>055-310600-
SOUTHWEST MONTANA
CITY           SKY/WX    TMP DP  RH WIND       PRES   REMARKS
BOZEMAN        CLOUDY    54  50  86 E6        29.90F
DILLON         CLOUDY    52  46  80 S8        29.90F
W YELLOWSTONE  CLOUDY    45  45 100 CALM      30.02F
* THREE FORKS  CLOUDY    54  37  53 N/A        N/A
* BOULDER HILL N/A       50  44  80 S6         N/A
* MONIDA PASS  N/A       44  44 100 W3         N/A
* RAYNOLDS PAS N/A       45  29  54 S6         N/A
* WHITEHALL    N/A       54  50  86 N5         N/A
* WISE RIVER   N/A       52  40  64 S3G9       N/A
$$

MTZ009>010-012-014-046-048-049-054-310600-
EAST SLOPES AND CENTRAL MONTANA
CITY           SKY/WX    TMP DP  RH WIND       PRES   REMARKS
CUT BANK       CLOUDY    55  37  51 W12       29.79S
GREAT FALLS    MOCLDY    54  41  62 SW8       29.80R
HELENA         CLOUDY    55  52  90 W6        29.85S
MALMSTROM AFB  MOCLDY    59  43  56 SW8       29.81R
* CONRAD       CLOUDY    61  37  41 W6         N/A
* EAST GLACIER N/A       55  36  49 W24G34     N/A
* MONARCH      N/A       54  41  62 S8G14      N/A
* PENDROY      N/A       54  32  43 NW12       N/A
* ROGERS PASS  N/A       50  37  61 W1G7       N/A
* SAINT MARY   N/A       58  34  41 S6G14      N/A
* SWEET GRASS  N/A       58  35  42 W9G15      N/A
$$

MTZ011-013-016-021-035-040-045-047-050-051-310600-
NORTH CENTRAL MONTANA
CITY           SKY/WX    TMP DP  RH WIND       PRES   REMARKS
HAVRE          CLOUDY    55  48  77 CALM      29.74S
LEWISTOWN      CLOUDY    55  46  72 CALM      29.80S
* CHESTER      N/A       55  45  69 NE2        N/A
* DENTON       N/A       57  49  75 SE4        N/A
* GEYSER       N/A       56  41  57 SW9        N/A
* JUDITH GAP   N/A       52  49  90 SE3        N/A
* LOMA         N/A       60  46  60 SW2        N/A
$$

MTZ017>020-022>027-061-062-310600-
NORTHEAST MONTANA
CITY           SKY/WX    TMP DP  RH WIND       PRES   REMARKS
GLASGOW        MOCLDY    61  57  87 E6        29.70R
GLENDIVE       CLOUDY    61  57  87 N5        29.74S
JORDAN         PTCLDY    57  54  90 CALM      29.71R
SIDNEY         CLOUDY    59  57  93 CALM      29.72S
WOLF POINT     CLOUDY    59  55  87 NE3       29.72R
* BEAVER HILL  N/A       60  57  90 W4         N/A
* CIRCLE       N/A       58  55  90 N/A        N/A
* LINDSAY DVD  N/A       57  55  93 NW4        N/A
* NAVAJO       N/A       56  54  93 SE3        N/A
$$

MTZ028>042-056>058-310600-
SOUTHCENTRAL AND SOUTHEAST MONTANA
CITY           SKY/WX    TMP DP  RH WIND       PRES   REMARKS
BAKER          LGT RAIN  61  57  87 W5        29.75S
BILLINGS       MOCLDY    59  46  62 W10       29.81F
LIVINGSTON     CLOUDY    57  45  64 W20G30    29.87S
MILES CITY     CLOUDY    61  57  87 S3        29.74S
* LAUREL APT   CLOUDY    57  45  64 N/A        N/A
* ROUNDUP APT  PTCLDY    57  46  67 S9         N/A
* ALZADA       N/A       61  54  78 W3         N/A
* HYSHAM       N/A       61  50  67 W6         N/A
* LAME DEER    N/A       55  53  93 SW8        N/A
* REED POINT   N/A       59  45  60 W9         N/A
* ROSCOE HILL  N/A       58  35  42 SW1G10     N/A
$$

REGIONAL REPORTS...DAKOTAS
CITY           SKY/WX    TMP DP  RH WIND       PRES   REMARKS
WILLISTON      CLOUDY    61  57  87 NW3       29.69F
DICKINSON      LGT RAIN  63  61  93 S9        29.69S
BEACH          N/A       59  59 100 W5        29.73S
CROSBY         FOG       57  57 100 CALM      29.71R
TIOGA          FOG       55  55 100 CALM      29.73R VSB 1 1/4
WATFORD CITY   FAIR      59  59 100 CALM      29.67F
BISMARCK       TSTM      63  61  93 E12       29.72R VSB 3
GRAND FORKS    CLEAR     59  57  93 S6        29.79R
FARGO          CLEAR     63  57  81 S8        29.81R
BUFFALO SD     CLOUDY    61  59  93 CALM      29.68F
RAPID CITY     CLOUDY    66  54  65 N14       29.78F
$$

REGIONAL REPORTS...WYOMING/IDAHO/WASHINGTON
CITY           SKY/WX    TMP DP  RH WIND       PRES   REMARKS
GILLETTE       CLOUDY    55  54  96 W8        29.85R
SHERIDAN       PTCLDY    52  48  86 SW6       29.83F
CODY           CLOUDY   N/A N/A N/A N/A        N/A
YELLOWSTONE LA CLOUDY    39  37  93 CALM      30.10F
SALMON         CLOUDY    55  54  96 N3        29.92R
MULLAN PASS    CLOUDY    48  39  71 SW8       29.95S
SAND POINT     PTCLDY    61  43  52 W5        29.81S
SPOKANE        MOCLDY    61  52  72 S13       29.84S

$$




USA.gov is the U.S. government's official web portal to all federal, state and local government web resources and services.